Location: Observatory
(52.1446°N, 0.4624°W)
Time: 01:12:06
(UTC+00:00)

ISS - Pass Details

Date: 28 January 2019
Orbit: 403 x 411 km, 51.6° (Epoch: 17 February)

Event Time Altitude Azimuth Distance (km) Brightness Sun altitude
Rises 18:04:46 0° 241° (WSW) 2,329 1.7 -12.7°
Reaches altitude 10° 18:06:52 10° 236° (SW) 1,472 0.2 -13.0°
Maximum altitude 18:10:05 50° 160° (SSE) 534 -3.3 -13.5°
Enters shadow 18:11:38 26° 97° (E) 854 -2.8 -13.7°
